This is the latest recevied weather packets stored in our database for station/object DM1RG-6. If no packets are shown the sender has not sent any weather packets the latest 10 day(s).
| Time | Temp. | Humidity | Pressure | Rain* | Wind** | Luminosity | Snow |
|---|---|---|---|---|---|---|---|
| 1777800603 | 25.56° C | 40% | 1012.7 hPa | 0 mm | - | - | - |
| 1777800244 | 25.56° C | 41% | 1012.7 hPa | 0 mm | - | - | - |
| 1777799883 | 25.56° C | 39% | 1012.6 hPa | 0 mm | - | - | - |
| 1777799523 | 25° C | 37% | 1012.8 hPa | 0 mm | - | - | - |
| 1777799163 | 25.56° C | 38% | 1012.8 hPa | 0 mm | - | - | - |
| 1777798804 | 25° C | 40% | 1013 hPa | 0 mm | - | - | - |
| 1777798084 | 24.44° C | 42% | 1012.9 hPa | 0 mm | - | - | - |
| 1777797363 | 23.89° C | 44% | 1012.9 hPa | 0 mm | - | - | - |
| 1777797003 | 23.89° C | 44% | 1012.9 hPa | 0 mm | - | - | - |
| 1777796643 | 23.89° C | 43% | 1013.1 hPa | 0 mm | - | - | - |
| 1777796283 | 23.89° C | 42% | 1013 hPa | 0 mm | - | - | - |
| 1777795923 | 23.33° C | 43% | 1012.8 hPa | 0 mm | - | - | - |
| 1777795563 | 22.78° C | 45% | 1013.3 hPa | 0 mm | - | - | - |
| 1777795204 | 22.78° C | 44% | 1013 hPa | 0 mm | - | - | - |
| 1777794844 | 22.78° C | 44% | 1013 hPa | 0 mm | - | - | - |
| 1777794483 | 23.33° C | 44% | 1012.9 hPa | 0 mm | - | - | - |
| 1777794123 | 22.22° C | 44% | 1013 hPa | 0 mm | - | - | - |
| 1777793763 | 21.67° C | 45% | 1013.2 hPa | 0 mm | - | - | - |
| 1777793403 | 21.67° C | 45% | 1013.1 hPa | 0 mm | - | - | - |
| 1777793043 | 21.11° C | 45% | 1013 hPa | 0 mm | - | - | - |
| 1777792683 | 20.56° C | 47% | 1013 hPa | 0 mm | - | - | - |
| 1777792323 | 20° C | 47% | 1013 hPa | 0 mm | - | - | - |
| 1777791963 | 20° C | 47% | 1013.1 hPa | 0 mm | - | - | - |
| 1777791603 | 20° C | 48% | 1013.3 hPa | 0 mm | - | - | - |
| 1777791244 | 19.44° C | 48% | 1013.1 hPa | 0 mm | - | - | - |
* Rain latest hour (hover to see other rain measurements)
** Current wind speed in m/s (hover to see current wind gust speed)